[Iaude] MPEC K116: 2024 KS [a=1.06,e=0.04,i=15.6,H=24.5]

mpec at cfa.harvard.edu mpec at cfa.harvard.edu
Tue May 28 23:27:30 EDT 2024


M.P.E.C. 2024-K116                                 Issued 2024 May 29, 03:26 UT

     The Minor Planet Electronic Circulars contain information on unusual
         minor planets, routine data on comets and natural satellites,
         and occasional editorial announcements.  They are published
    on behalf of Division F of the International Astronomical Union by the
          Minor Planet Center, Smithsonian Astrophysical Observatory,
                          Cambridge, MA 02138, U.S.A.
			  
             Prepared using the Tamkin Foundation Computer Network

                              MPC at CFA.HARVARD.EDU
            URL https://www.minorplanetcenter.net/    ISSN 1523-6714

                                    2024 KS                                     


Observations:
     K24K00S* C2024 05 27.29633715 28 38.494+17 28 31.16         21.28wXEK116F52
     K24K00S  C2024 05 27.30870715 28 34.254+17 27 08.06         21.18wXEK116F52
     K24K00S  C2024 05 27.33349715 28 25.712+17 24 21.06         21.15wXEK116F52
     K24K00S KC2024 05 27.41032615 27 55.606+17 15 15.12         21.29GVEK116I52
     K24K00S KC2024 05 27.41964915 27 52.560+17 14 10.10         21.23GVEK116I52
     K24K00S  C2024 05 27.42304715 27 51.299+17 13 43.53         21.1 GVEK116H01
     K24K00S KC2024 05 27.42639515 27 50.187+17 13 20.52         21.3 GVEK116H01
     K24K00S KC2024 05 27.43406015 27 47.765+17 12 29.92         21.19GVEK116I52
     K24K00S  C2024 05 27.43865015 27 46.177+17 11 55.08         20.5 GVEK116H01
     K24K00S  C2024 05 27.44394415 27 44.411+17 11 18.33         21.1 GVEK116H01
     K24K00S  C2024 05 27.46096915 27 41.355+17 09 50.57         20.92GVEK116F51
     K24K00S  C2024 05 27.46178515 27 41.103+17 09 45.64         20.72GVEK116F51
     K24K00S KB2024 05 28.00804315 24 50.08 +16 06 07.2          20.2 GXEK116958
     K24K00S KB2024 05 28.01665415 24 47.09 +16 05 06.8          20.0 GXEK116958
     K24K00S  C2024 05 28.21333415 23 47.757+15 42 12.60         21.4 GVEK116H01
     K24K00S  C2024 05 28.21915615 23 45.746+15 41 31.65         21.1 GVEK116H01
     K24K00S  C2024 05 28.22878015 23 42.426+15 40 23.45         21.0 GVEK116H01
     K24K00S  C2024 05 28.23901915 23 38.868+15 39 11.21         20.8 GVEK116H01
     K24K00S KC2024 05 28.24599 15 23 36.92 +15 38 23.2                VEK116291
     K24K00S KC2024 05 28.24855 15 23 35.93 +15 38 06.7          21.0 RVEK116291
     K24K00S KC2024 05 28.25117 15 23 35.05 +15 37 47.4          21.0 RVEK116291
     K24K00S KC2024 05 28.25550 15 23 32.268+15 37 07.68         21.2 GVEK116H36
     K24K00S KC2024 05 28.26141415 23 31.387+15 36 34.27         21.11GVEK116I52
     K24K00S KC2024 05 28.26355215 23 30.671+15 36 19.19         21.55GVEK116I52
     K24K00S KC2024 05 28.26569415 23 29.972+15 36 04.21         20.69GVEK116I52
     K24K00S KC2024 05 28.26783215 23 29.177+15 35 48.80         20.81GVEK116I52
     K24K00S KC2024 05 28.28897 15 23 20.738+15 33 08.28         21.0 GVEK116H36
     K24K00S KC2024 05 28.32251 15 23 09.346+15 29 08.70         20.8 GVEK116H36
     K24K00S KC2024 05 29.12576615 18 59.84 +13 52 17.2          21.3 GVEK116H21
     K24K00S KC2024 05 29.12856215 18 58.88 +13 51 56.8          21.7 GVEK116H21

Observer details:
291 LPL/Spacewatch II.  Observer M. T. Read.  1.8-m f/2.7 reflector + CCD.
958 Observatoire de Dax.  Observer P. Dupouy.  0.50-m f/4.5 Reflector + CMO.
F51 Pan-STARRS 1, Haleakala.  Observers J. Herman, T. Lowe, P. Minguez, A.
    Schultz, I. Smith.  Measurers K. Chambers, T. de Boer, J. Fairlamb, H.
    Gao, M. Huber, C.-C. Lin, E. Magnier, Y. Ramanjooloo, R. Wainscoat, R.
    Weryk.  1.8-m Ritchey-Chretien + CCD.
F52 Pan-STARRS 2, Haleakala.  Observers J. Herman, T. Lowe, P. Minguez, A.
    Schultz, I. Smith.  Measurers K. Chambers, T. de Boer, J. Fairlamb, H.
    Gao, M. Huber, C.-C. Lin, E. Magnier, Y. Ramanjooloo, R. Wainscoat, R.
    Weryk.  1.8-m Ritchey-Chretien + CCD.
H01 Magdalena Ridge Observatory, Socorro.  Observers W. H. Ryan, E. V. Ryan.
    Measurer W. H. Ryan.  2.4-m f/8.9 Ritchey-Chretien + CCD.
H21 Astronomical Research Observatory, Westfield.  Observer R. Holmes.
    Measurers T. Linder, R. Holmes, L. Horn.  0.76-m f/3.0 astrograph + CCD.
H36 Sandlot Observatory, Scranton.  Observer G. Hug.  0.56-m f/4.8 .56 meter
    Reflector + CCD.
I52 Steward Observatory, Mt. Lemmon Station.  Observer R. A. Kowalski.
    Measurers T. Beuden, V. F. Carvajal, D. Fay, J. B. Fazekas, D. C. Fuls, A.
    R. Gibbs, A. D. Grauer, H. Groeller, J. K. Hogan, R. A. Kowalski, S. M.
    Larson, G. J. Leonard, D. Rankin, R. L. Seaman, F. C. Shelly, K. W.
    Wierzchos.  1.0-m prime focus + CCD.

Orbital elements:
2024 KS                                                  Earth MOID = 0.0375 AU
Epoch 2024 Mar. 31.0 TT = JDT 2460400.5                 MPC                     
M 138.57593              (2000.0)            P               Q                  
n   0.90602890     Peri.  338.32845     +0.57059462     -0.77878490             
a   1.0577297      Node    75.95589     +0.78740881     +0.42868235             
e   0.0362154      Incl.   15.58315     +0.23325767     +0.45795798             
P   1.09           H   24.51          G   0.15           U   7                  
Residuals in seconds of arc
240527 F52  0.0   0.3+    240527 F51  0.3-  0.4-    240528 291  0.1+  0.4-
240527 F52  0.0   0.2+    240527 F51  0.2+  0.3+    240528 H36  0.3+  0.3+
240527 F52  0.0   0.1+    240528 958  0.6+  0.3+    240528 I52  0.5-  0.2-
240527 I52  0.5-  0.2+    240528 958  0.2-  0.6+    240528 I52  0.1-  0.2-
240527 I52  0.5+  0.1-    240528 H01  0.0   0.1+    240528 I52  0.6+  0.1+
240527 H01  0.0   0.1-    240528 H01  0.0   0.2+    240528 I52  0.2-  0.2-
240527 H01  0.1-  0.2+    240528 H01  0.2+  0.1-    240528 H36  0.2-  0.4-
240527 I52  0.2+  0.3-    240528 H01  0.0   0.1+    240528 H36  0.4+  0.4+
240527 H01  0.2+  0.1-    240528 291  1.1+  1.2-    240529 H21  0.0   0.0
240527 H01  0.3-  0.0     240528 291  0.4-  0.4+    240529 H21  0.0   0.1+

Ephemeris:
2024 KS                  a,e,i = 1.06, 0.04, 16                  q = 1.0194
Date    TT    R. A. (2000) Decl.     Delta      r    Elong.  Phase     V
2024 04 29    17 13 24.9 +40 53 38   0.1921  1.0948   112.4    58.2    23.2
...
2024 05 14    16 30 55.0 +34 37 58   0.1402  1.0960   124.4    49.5    22.3
...
2024 05 22    15 55 30.2 +26 10 01   0.1168  1.0958   133.5    42.1    21.7
...
2024 05 28    15 24 54.0 +16 07 48   0.1043  1.0954   140.1    36.4    21.3
2024 05 29    15 19 38.0 +14 08 24   0.1028  1.0952   140.9    35.7    21.2
2024 05 30    15 14 21.0 +12 04 10   0.1015  1.0951   141.6    35.1    21.2
...
2024 06 05    14 43 06.7 -01 30 34   0.09864 1.0942   142.2    34.7    21.1
...
2024 06 13    14 06 08.5 -19 18 16   0.1076  1.0925   133.5    42.4    21.5
...
2024 06 28    13 20 11.9 -41 20 15   0.1505  1.0879   114.6    58.2    22.7

A. U. Tomatic                (C) Copyright 2024 MPC           M.P.E.C. 2024-K116





More information about the Iaude mailing list